Location: B
(0.0000°N, 0.0000°E)
Time: 22:46:06
(UTC+01:00)

Daily predictions for brighter satellites

Satellite Brightness Start Highest point End
(mag) Time Altitude Azimuth Time Altitude Azimuth Time Altitude Azimuth
NOSS 3-1 (C) 4.2 19:01:30 10° NNW 19:09:53 77° ENE 19:18:16 10° SSE
SPOT 3 Rocket 4.1 19:07:29 10° S 19:12:41 68° WSW 19:17:51 10° NNW
COSMOS 2441 4.4 19:09:19 10° SSE 19:14:03 58° ENE 19:18:47 10° N
Cosmos 158 Rocket 4.0 19:10:36 10° N 19:15:43 60° ENE 19:20:43 10° SSE
Cosmos 1048 Rocket 4.4 19:12:27 10° NNW 19:17:48 76° WSW 19:23:11 10° S
Cosmos 2056 Rocket 4.0 19:15:16 10° S 19:20:23 43° ESE 19:25:29 10° NNE
SMAP 4.3 19:16:50 10° S 19:21:18 47° WSW 19:25:46 10° NNW
deb Ariane 4.3 19:19:00 10° WNW 19:22:17 27° N 19:24:45 10° ENE
MONITOR-E 4.2 19:19:17 10° S 19:22:28 87° W 19:25:38 10° NNW
Cosmos 1544 Rocket 3.8 19:18:35 10° N 19:23:02 80° W 19:27:30 10° S
Meteor 1-13 Rocket 4.4 19:18:30 10° S 19:24:02 81° W 19:29:38 10° N
SL-27 R/B 3.3 19:21:49 10° NNE 19:25:00 30° ENE 19:28:08 10° SE
YAOGAN 1 4.1 19:22:38 10° S 19:26:42 40° WSW 19:30:45 10° NNW
ARIANE 5 R/B 2.1 19:18:25 10° W 19:28:13 76° N 19:30:37 12° E
IDEFIX/ARIANE 42P 3.9 19:23:33 10° S 19:28:32 44° WSW 19:33:28 10° NNW
Delta 142 3.5 19:25:02 10° WSW 19:29:12 87° SSE 19:33:36 13° ENE
FREGAT/IRIS 4.5 19:27:59 10° ESE 19:29:42 14° E 19:30:27 13° ENE
Cosmos 1624 Rocket 3.9 19:29:34 10° S 19:34:45 71° ESE 19:39:53 10° NNE
Resurs 01 Rocket 3.6 19:35:24 10° E 19:35:55 11° E 19:35:55 11° E
GPS 2-04 Rocket1 2.8 19:34:28 10° NW 19:38:08 46° NE 19:41:35 10° ESE
Cosmos 1371 Rocket 4.2 19:33:04 10° SSW 19:38:21 79° WNW 19:43:40 10° N
COSMOS 2406 3.3 19:34:18 10° NNW 19:40:01 87° WSW 19:45:48 10° SSE
Cosmos 1025 Rocket 2.9 19:36:21 10° S 19:40:40 78° E 19:44:59 10° N
Cosmos 1975 2.7 19:36:41 10° N 19:40:41 74° E 19:44:41 10° S
Meteor 1-23 Rocket 4.3 19:36:00 10° S 19:41:47 65° E 19:47:28 10° NNE
ALOS 4.2 19:46:32 10° ESE 19:47:17 12° ESE 19:47:17 12° ESE
Cosmos 1484 Rocket 3.9 19:45:28 10° S 19:49:14 47° WSW 19:52:54 10° NNW
Cosmos 1340 3.5 19:46:27 10° SSE 19:49:51 31° E 19:51:11 24° ENE
Intercosmos 25 3.8 19:47:50 10° NNE 19:51:19 46° E 19:56:22 10° SSE
Intelsat 5-3 Rocket 2.6 19:54:23 10° NW 19:58:58 34° NNE 19:59:28 32° NE
METEOR-M 4.2 19:55:53 10° SSE 20:01:05 53° ENE 20:06:15 10° N
NOAA 12 4.0 19:55:48 10° SSE 20:01:05 67° ENE 20:06:20 10° N
Meteor 2-4 Rocket 4.2 19:57:14 10° SSW 20:02:45 59° W 20:08:05 10° N
SEDSat Delta rocket 2.7 19:58:59 10° NW 20:03:04 77° NE 20:05:51 21° ESE
OAO 3 Rocket 3.2 19:58:55 10° WNW 20:03:34 75° SW 20:08:13 10° SE
ATLAS 2AS CENTAUR R/B 3.3 19:58:40 10° N 20:05:15 34° ENE 20:11:17 10° SE
Ariane H10-3 1.4 20:03:46 10° WNW 20:05:55 50° N 20:06:10 48° NNE
Cosmos 1892 Rocket 3.4 20:02:48 10° S 20:07:09 88° E 20:10:35 16° N
Cosmos 1452 Rocket 3.6 20:05:03 10° S 20:10:08 52° ESE 20:12:07 33° NE
Cosmos 2239 Rocket 4.5 20:04:28 10° N 20:10:27 56° E 20:16:27 10° SSE
Okean 2 4.1 20:14:26 10° SSW 20:18:26 52° W 20:21:54 13° NNW
Cosmos 1821 Rocket 3.9 20:12:37 10° N 20:18:38 65° E 20:24:43 10° SSE
Cosmos 494 Rocket 4.2 20:13:56 10° NNW 20:19:10 74° WSW 20:24:25 10° S
Cosmos 1743 2.7 20:21:53 34° N 20:23:28 81° W 20:27:18 10° S
Meteor 1-29 4.5 20:22:23 18° NNW 20:24:27 35° W 20:27:40 10° SW
Cosmos 2369 Rocket 2.1 20:19:45 10° S 20:25:18 66° ESE 20:26:51 46° NE
deb Centaur AC-2 4.3 20:27:37 10° NW 20:31:04 50° NNW 20:31:04 50° NNW
ARIANE 44L R/B 3.9 20:28:49 10° W 20:31:08 29° WSW 20:31:08 29° WSW
Ariane 42L R/B 3.9 20:30:20 10° WSW 20:32:04 18° SSW 20:32:04 18° SSW
BREEZE-M DEB (TANK) 3.9 20:25:37 10° SSW 20:34:20 39° SE 20:34:23 39° SE
Haruka 4.2 20:32:34 10° W 20:35:24 23° NNW 20:35:32 23° NNW
SAR-Lupe-4 4.2 20:32:37 10° S 20:35:38 53° SW 20:35:38 53° SW
Cosmos 1727 Rocket 4.2 20:30:05 10° S 20:36:23 73° W 20:41:04 19° N
ARIANE 44L R/B 3.5 20:29:30 10° W 20:37:27 38° NNW 20:37:27 38° NNW
OAO 2 Rocket 3.7 20:35:10 10° WSW 20:40:09 51° NW 20:40:33 50° NNW
Centaur AC-69 4.1 20:40:08 10° SW 20:43:23 52° SSE 20:44:29 46° ESE
Atlas Centaur 2 4.5 20:41:13 10° WSW 20:44:06 16° SSW 20:47:22 10° SSE
FengYun 1-2 T 4.3 20:47:33 10° S 20:53:07 75° WSW 20:55:25 37° NNW
Milstar 3 4.2 20:52:37 10° SW 21:01:00 52° SE 21:04:49 42° E
Resurs 01 Rocket 3.5 21:09:31 10° SSW 21:13:18 28° WSW 21:13:30 28° W
FENGYUN 3A 4.5 21:10:27 10° S 21:15:38 47° WSW 21:15:52 47° W
Cosmos 1943 Rocket 3.3 21:16:03 10° SSW 21:19:22 37° SSW 21:19:22 37° SSW
ALOS 4.3 21:22:30 10° SSW 21:25:49 25° WSW 21:25:49 25° WSW
